Location: Brad
(46.1333°N, 22.7833°E)
Time: 06:02:30
(UTC+00:00)

Cosmos 1892 Rocket - Pass Details

Date: 03 February 2023
Orbit: 605 x 631 km, 82.5° (Epoch: 29 March)

Event Time Altitude Azimuth Distance (km) Brightness Sun altitude
Rises 17:03:41 0° 182° (S) 2,897 7.1 -15.4°
Reaches altitude 10° 17:05:55 10° 180° (S) 1,991 6.3 -15.7°
Maximum altitude 17:10:18 73° 97° (E) 654 3.4 -16.5°
Drops below altitude 10° 17:14:42 10° 13° (NNE) 1,991 6.0 -17.3°
Sets 17:16:56 0° 11° (NNE) 2,897 6.8 -17.6°
